Flag for Kiribati Weather past 2 weeks in Kiritimati, Christmas Island, Kiribati

Now
86 °F

Scattered clouds.


Feels Like: 95 °F
Forecast: 78 / 85 °F
Wind: 9 mph from South

Location: Christmas / Cassidy

Current Time: Aug 5, 2015 at 12:44:59 PM

Latest Report: Aug 5, 2015 at 12:00 PM


Visibility: N/A

Pressure: 29.77 "Hg

Humidity: 70%

Dew point: 75 °F

Location of KiritimatiLocation

Historic Weather in Kiritimati — Graph

°F

Kiritimati temperature yesterday

Maximum temperature yesterday: 88 °F (at 3:00 PM)
Minimum temperature yesterday: 79 °F (at 7:00 AM)
Average temperature yesterday: 83 °F

Past Weeks' High & Low Weather Summary

 TemperatureHumidityPressure
High90 °F (Jul 30, 1:00 PM)100% (Jul 21, 2:00 PM)29.89 "Hg (Jul 21, 2:00 PM)
Low75 °F (Jul 24, 9:00 PM)66% (Jul 29, 1:00 PM)29.53 "Hg (Jul 30, 11:00 AM)
Average82 °F85%29.78 "Hg
* Reported Jul 21 11:00 AM — Aug 5 11:00 AM, Kiritimati, Weather by CustomWeather, © 2015

Note: Actual official high and low records may vary slightly from our data, if they occured in-between our weather recording intervals... More about our weather records

Advertising

Kiritimati weather history for previous 24 hours

 ConditionsComfort  
Time TempWeatherWind HumidityBarometerVisibility
11:00 AM
Wed, Aug 5
86 °FScattered clouds.7 mph75%29.77 "HgN/A
10:00 AM86 °FBroken clouds.12 mph75%29.80 "HgN/A
9:00 AM86 °FScattered clouds.7 mph75%29.77 "HgN/A
7:00 AM82 °FScattered clouds.5 mph79%29.74 "HgN/A
6:00 AM81 °FScattered clouds.5 mph84%29.71 "HgN/A
5:00 AM81 °FBroken clouds.5 mph89%29.71 "HgN/A
4:00 AM81 °FPartly cloudy.2 mph89%29.71 "HgN/A
3:00 AM81 °FPartly cloudy.5 mph84%29.71 "HgN/A
2:00 AM81 °FPassing clouds.5 mph84%29.74 "HgN/A
1:00 AM79 °FPartly cloudy.7 mph89%29.74 "HgN/A
12:00 AM79 °FScattered showers. Partly cloudy.2 mph94%29.77 "HgN/A
11:00 PM
Tue, Aug 4
81 °FThunderstorms. Partly cloudy.16 mph89%29.77 "HgN/A
10:00 PM82 °FPassing clouds.2 mph84%29.77 "HgN/A
9:00 PM81 °FPassing clouds.No wind84%29.77 "HgN/A
8:00 PM81 °FScattered showers. Passing clouds.7 mph84%29.74 "HgN/A
7:00 PM82 °FScattered showers. Passing clouds.2 mph84%29.74 "HgN/A
6:00 PM84 °FScattered showers. Passing clouds.5 mph74%29.71 "HgN/A
4:00 PM86 °FScattered clouds.6 mph75%29.68 "HgN/A
3:00 PM88 °FPartly sunny.9 mph70%29.71 "HgN/A
2:00 PM86 °FScattered clouds.6 mph75%29.71 "HgN/A
1:00 PM86 °FScattered clouds.7 mph75%29.74 "HgN/A
12:00 PM86 °FScattered clouds.6 mph70%29.74 "HgN/A
Weather by CustomWeather, © 2015

See weather overviewHow to use our weather pages